KC5L-7 Weather Reports


Display with metric or nautical units.
time (UTC)temp
F
wind
direction
speed
MPH
gust
MPH
rain 1hr
in
rain 24hr
in
rain mn
in
humidity
%
barometer
mb
20260506221620 83 32 1.0 3.0 0.00 0.00 0.00 62 1006.4
20260506220621 83 35 2.0 5.0 0.00 0.00 0.00 60 1006.3
20260506215620 83 54 1.0 4.0 0.00 0.00 0.00 60 1006.3
20260506214620 84 36 1.0 5.0 0.00 0.00 0.00 59 1006.3
20260506213620 86 58 1.0 4.0 0.00 0.00 0.00 58 1006.0
20260506212620 86 18 0.0 2.0 0.00 0.00 0.00 58 1005.9
20260506211620 87 44 0.0 3.0 0.00 0.00 0.00 58 1005.9
20260506210620 87 322 0.0 2.0 0.00 0.00 0.00 58 1005.9
20260506205620 86 29 0.0 2.0 0.00 0.00 0.00 58 1006.1
20260506204620 86 199 1.0 4.0 0.00 0.00 0.00 59 1006.2
20260506203621 86 310 0.0 2.0 0.00 0.00 0.00 59 1006.4
20260506202621 85 207 1.0 2.0 0.00 0.00 0.00 62 1006.5
20260506201620 85 153 0.0 4.0 0.00 0.00 0.00 60 1006.6
20260506200620 85 67 0.0 3.0 0.00 0.00 0.00 62 1006.8
20260506195620 85 55 0.0 3.0 0.00 0.00 0.00 63 1007.0
20260506194620 85 68 0.0 2.0 0.00 0.00 0.00 64 1007.0
20260506193620 85 182 1.0 5.0 0.00 0.00 0.00 64 1007.1
20260506192620 84 238 1.0 2.0 0.00 0.00 0.00 67 1007.1
20260506191620 84 201 1.0 5.0 0.00 0.00 0.00 68 1007.2
20260506190620 83 185 0.0 2.0 0.00 0.00 0.00 70 1007.3
20260506185620 83 125 0.0 3.0 0.00 0.00 0.00 71 1007.6
20260506183620 82 196 0.0 3.0 0.00 0.00 0.00 71 1007.9
20260506182620 81 49 0.0 3.0 0.00 0.00 0.00 72 1008.0
20260506181620 81 149 0.0 4.0 0.00 0.00 0.00 73 1008.1
20260506180620 81 97 0.0 2.0 0.00 0.00 0.00 74 1008.2
20260506175620 80 139 0.0 2.0 0.00 0.00 0.00 75 1008.3
20260506174620 80 83 0.0 2.0 0.00 0.00 0.00 77 1008.5
20260506173620 79 206 0.0 1.0 0.00 0.00 0.00 79 1008.4
20260506172620 79 71 0.0 1.0 0.00 0.00 0.00 81 1008.6
20260506171620 78 60 0.0 1.0 0.00 0.00 0.00 81 1008.7
20260506170620 78 60 0.0 1.0 0.00 0.00 0.00 82 1008.7
20260506165621 78 334 0.0 1.0 0.00 0.00 0.00 82 1008.8
20260506164620 78 64 0.0 2.0 0.00 0.00 0.00 82 1008.8
20260506163621 78 37 0.0 1.0 0.00 0.00 0.00 85 1008.7
20260506162621 77 52 0.0 2.0 0.00 0.00 0.00 85 1008.7
20260506161620 77 35 0.0 2.0 0.00 0.00 0.00 88 1008.6
20260506160620 77 168 0.0 0.0 0.00 0.00 0.00 88 1008.5
20260506155620 76 0 0.0 0.0 0.00 0.00 0.00 88 1008.6
20260506154620 76 223 0.0 0.0 0.00 0.00 0.00 88 1008.6
20260506153620 76 250 0.0 0.0 0.00 0.00 0.00 88 1008.4
20260506152620 76 0 0.0 0.0 0.00 0.00 0.00 86 1008.3
20260506151620 76 0 0.0 0.0 0.00 0.00 0.00 85 1008.1
20260506150621 76 0 0.0 0.0 0.00 0.00 0.00 86 1008.1
20260506145620 76 57 0.0 2.0 0.00 0.00 0.00 86 1007.9
20260506144620 76 0 0.0 0.0 0.00 0.00 0.00 86 1008.0
20260506143620 76 0 0.0 0.0 0.00 0.00 0.00 86 1007.8
20260506142620 76 66 0.0 2.0 0.00 0.00 0.00 86 1007.6
20260506141620 76 193 0.0 2.0 0.00 0.00 0.00 86 1007.5
20260506140903 76 64 0.0 1.0 0.00 0.00 0.00 86 1007.3
20260506140620 76 64 0.0 1.0 0.00 0.00 0.00 86 1007.3
20260506135620 76 133 0.0 2.0 0.00 0.00 0.00 86 1007.2
20260506134620 76 193 0.0 4.0 0.00 0.00 0.00 86 1006.8
20260506133620 75 191 0.0 2.0 0.00 0.00 0.00 88 1006.8
20260506132620 75 208 0.0 4.0 0.00 0.00 0.00 88 1006.8
20260506130620 75 195 0.0 2.0 0.00 0.00 0.00 88 1006.5
20260506125620 75 178 0.0 6.0 0.00 0.00 0.00 89 1006.5
20260506124620 75 195 0.0 3.0 0.00 0.00 0.00 89 1006.4
20260506122620 75 182 0.0 4.0 0.00 0.00 0.00 89 1006.4
20260506120621 75 187 0.0 5.0 0.00 0.00 0.00 88 1006.4
20260506115620 75 226 0.0 1.0 0.00 0.00 0.00 88 1006.4
20260506114620 75 187 0.0 3.0 0.00 0.00 0.00 88 1006.4
20260506113620 75 213 0.0 2.0 0.00 0.00 0.00 88 1006.4
20260506112620 75 200 0.0 1.0 0.00 0.00 0.00 88 1006.4
20260506110620 75 188 1.0 3.0 0.00 0.00 0.00 88 1006.4
20260506105620 76 196 0.0 3.0 0.00 0.00 0.00 87 1006.3
20260506104620 76 203 0.0 1.0 0.00 0.00 0.00 86 1006.2
20260506102620 76 189 0.0 3.0 0.00 0.00 0.00 86 1006.2
20260506101621 76 201 0.0 1.0 0.00 0.00 0.00 86 1006.1
20260506100620 76 188 1.0 6.0 0.00 0.00 0.00 86 1006.1
20260506094620 76 211 0.0 3.0 0.00 0.00 0.00 86 1006.1
20260506093620 76 187 1.0 6.0 0.00 0.00 0.00 86 1006.1
20260506092620 76 193 1.0 8.0 0.00 0.00 0.00 86 1006.1
20260506090620 76 190 1.0 6.0 0.00 0.00 0.00 86 1006.1
20260506084620 76 195 1.0 4.0 0.00 0.00 0.00 85 1006.2
20260506083620 76 185 1.0 5.0 0.00 0.00 0.00 85 1006.2
20260506082620 76 191 0.0 6.0 0.00 0.00 0.00 85 1006.3
20260506080620 76 198 1.0 5.0 0.00 0.00 0.00 85 1006.3
20260506072620 77 205 0.0 4.0 0.00 0.00 0.00 85 1006.4
20260506071621 77 177 0.0 5.0 0.00 0.00 0.00 85 1006.4
20260506060620 77 188 0.0 3.0 0.00 0.00 0.00 84 1006.4
20260506044620 78 178 0.0 1.0 0.00 0.00 0.00 81 1006.1
20260506043620 79 211 0.0 5.0 0.00 0.00 0.00 81 1006.1
20260506042620 79 114 0.0 1.0 0.00 0.00 0.00 81 1006.0
20260506040620 79 198 1.0 7.0 0.00 0.00 0.00 79 1005.8
20260506035620 79 190 1.0 8.0 0.00 0.00 0.00 78 1005.6
20260506034621 80 186 1.0 5.0 0.00 0.00 0.00 78 1005.5
20260506033620 80 205 0.0 3.0 0.00 0.00 0.00 78 1005.3
20260506032620 80 191 0.0 6.0 0.00 0.00 0.00 76 1005.2
20260506030620 81 191 0.0 4.0 0.00 0.00 0.00 75 1005.1
20260506025620 81 186 0.0 3.0 0.00 0.00 0.00 75 1005.0
20260506024620 82 191 0.0 2.0 0.00 0.00 0.00 73 1004.8
20260506023620 82 187 0.0 1.0 0.00 0.00 0.00 72 1004.5
20260506022620 82 210 0.0 3.0 0.00 0.00 0.00 71 1004.3
20260506020620 83 118 0.0 2.0 0.00 0.00 0.00 69 1004.3
20260506015620 83 93 0.0 1.0 0.00 0.00 0.00 68 1003.9
20260506014620 84 81 0.0 1.0 0.00 0.00 0.00 68 1003.6
20260506013620 84 83 0.0 1.0 0.00 0.00 0.00 68 1003.5
20260506012620 84 181 0.0 3.0 0.00 0.00 0.00 66 1003.3
20260506010619 84 181 0.0 2.0 0.00 0.00 0.00 65 1003.0
20260506005620 85 213 0.0 0.0 0.00 0.00 0.00 63 1002.9
20260506004620 85 0 0.0 0.0 0.00 0.00 0.00 63 1002.8
20260506003621 85 202 0.0 1.0 0.00 0.00 0.00 63 1002.8
20260506001620 85 191 0.0 3.0 0.00 0.00 0.00 63 1002.8
20260506000620 85 0 0.0 0.0 0.00 0.00 0.00 63 1002.7
20260505235620 85 94 0.0 1.0 0.00 0.00 0.00 62 1002.7
20260505234620 85 184 0.0 3.0 0.00 0.00 0.00 63 1002.6
20260505233620 86 205 0.0 3.0 0.00 0.00 0.00 62 1002.7
20260505232620 86 222 0.0 2.0 0.00 0.00 0.00 62 1002.6
20260505225620 86 193 0.0 3.0 0.00 0.00 0.00 61 1002.7
20260505224120 86 180 0.0 4.0 0.00 0.00 0.00 62 1002.6
20260505223120 85 195 0.0 2.0 0.00 0.00 0.00 62 1002.6
20260505222120 85 187 1.0 8.0 0.00 0.00 0.00 62 1002.6